Time,TemperatureF,DewpointF,PressureIn,WindDirection,WindDirectionDegrees,WindSpeedMPH,WindSpeedGustMPH,Humidity,HourlyPrecipIn,Conditions,Clouds,dailyrainin,SoftwareType,DateUTC
2013-05-07 00:03:00,57.4,50.2,30.02,NNE,22,0.0,-999.0,77,-99.99,,,0.00,Acu-Link.com,2013-05-07 04:03:00,
2013-05-07 00:18:00,56.5,50.1,30.01,NNE,22,0.0,-999.0,79,-99.99,,,0.00,Acu-Link.com,2013-05-07 04:18:00,
2013-05-07 00:34:00,55.9,49.8,30.01,NNE,22,0.0,-999.0,80,-99.99,,,0.00,Acu-Link.com,2013-05-07 04:34:00,
2013-05-07 00:49:00,55.6,49.9,30.01,NNE,22,0.0,-999.0,81,-99.99,,,0.00,Acu-Link.com,2013-05-07 04:49:00,
2013-05-07 01:04:00,55.4,49.7,30.01,NNE,22,0.0,-999.0,81,-99.99,,,0.00,Acu-Link.com,2013-05-07 05:04:00,
2013-05-07 01:20:00,54.9,49.2,30.00,NNE,22,0.0,-999.0,81,-99.99,,,0.00,Acu-Link.com,2013-05-07 05:20:00,
2013-05-07 01:35:00,54.1,48.7,30.00,NNE,22,0.0,-999.0,82,-99.99,,,0.00,Acu-Link.com,2013-05-07 05:35:00,
2013-05-07 03:16:00,51.1,47.4,29.99,NNE,22,0.0,-999.0,87,-99.99,,,0.00,Acu-Link.com,2013-05-07 07:16:00,
2013-05-07 03:31:00,50.5,46.8,30.00,NNE,22,0.0,-999.0,87,-99.99,,,0.00,Acu-Link.com,2013-05-07 07:31:00,
2013-05-07 03:47:00,50.2,46.8,30.00,NNE,22,0.0,-999.0,88,-99.99,,,0.00,Acu-Link.com,2013-05-07 07:47:00,
2013-05-07 04:02:00,50.0,46.6,30.00,NNE,22,0.0,-999.0,88,-99.99,,,0.00,Acu-Link.com,2013-05-07 08:02:00,
2013-05-07 04:17:00,49.8,46.4,30.00,NNE,22,0.0,-999.0,88,-99.99,,,0.00,Acu-Link.com,2013-05-07 08:17:00,
2013-05-07 04:33:00,49.8,46.7,30.00,NNE,22,0.0,-999.0,89,-99.99,,,0.00,Acu-Link.com,2013-05-07 08:33:00,
2013-05-07 04:48:00,49.1,46.0,30.00,ESE,112,1.7,-999.0,89,-99.99,,,0.00,Acu-Link.com,2013-05-07 08:48:00,
2013-05-07 05:03:00,48.9,45.8,29.99,ESE,112,0.0,-999.0,89,-99.99,,,0.00,Acu-Link.com,2013-05-07 09:03:00,
2013-05-07 05:18:00,48.4,45.3,29.99,ESE,112,0.0,-999.0,89,-99.99,,,0.00,Acu-Link.com,2013-05-07 09:18:00,
2013-05-07 05:33:00,48.2,45.1,30.00,ESE,112,0.0,-999.0,89,-99.99,,,0.00,Acu-Link.com,2013-05-07 09:33:00,
2013-05-07 05:48:00,47.8,45.0,30.00,ESE,112,0.0,-999.0,90,-99.99,,,0.00,Acu-Link.com,2013-05-07 09:48:00,
2013-05-07 06:04:00,47.7,44.9,30.00,ESE,112,0.0,-999.0,90,-99.99,,,0.00,Acu-Link.com,2013-05-07 10:04:00,
2013-05-07 06:19:00,47.7,44.9,30.00,ESE,112,0.0,-999.0,90,-99.99,,,0.00,Acu-Link.com,2013-05-07 10:19:00,
2013-05-07 06:34:00,47.7,45.2,30.00,ESE,112,0.0,-999.0,91,-99.99,,,0.00,Acu-Link.com,2013-05-07 10:34:00,
2013-05-07 06:50:00,48.2,45.7,30.01,ESE,112,0.0,-999.0,91,-99.99,,,0.00,Acu-Link.com,2013-05-07 10:50:00,
2013-05-07 07:05:00,48.9,46.4,30.01,ESE,112,0.0,-999.0,91,-99.99,,,0.00,Acu-Link.com,2013-05-07 11:05:00,
2013-05-07 07:20:00,49.8,47.3,30.02,ESE,112,0.0,-999.0,91,-99.99,,,0.00,Acu-Link.com,2013-05-07 11:20:00,
2013-05-07 07:36:00,50.9,48.4,30.01,ESE,112,0.0,-999.0,91,-99.99,,,0.00,Acu-Link.com,2013-05-07 11:36:00,
2013-05-07 07:51:00,52.2,49.4,30.01,ESE,112,0.0,-999.0,90,-99.99,,,0.00,Acu-Link.com,2013-05-07 11:51:00,
2013-05-07 08:06:00,53.6,50.7,30.01,ESE,112,0.0,-999.0,90,-99.99,,,0.00,Acu-Link.com,2013-05-07 12:06:00,
2013-05-07 08:22:00,54.9,51.4,30.01,ESE,112,0.0,-999.0,88,-99.99,,,0.00,Acu-Link.com,2013-05-07 12:22:00,
2013-05-07 08:37:00,56.8,52.0,30.02,ENE,67,0.0,-999.0,84,-99.99,,,0.00,Acu-Link.com,2013-05-07 12:37:00,
2013-05-07 08:52:00,58.8,53.3,30.02,ENE,67,0.0,-999.0,82,-99.99,,,0.00,Acu-Link.com,2013-05-07 12:52:00,
2013-05-07 09:08:00,61.5,54.2,30.02,NNW,337,1.1,-999.0,77,-99.99,,,0.00,Acu-Link.com,2013-05-07 13:08:00,
2013-05-07 09:23:00,62.6,54.2,30.02,West,270,1.7,-999.0,74,-99.99,,,0.00,Acu-Link.com,2013-05-07 13:23:00,
2013-05-07 09:38:00,63.3,54.9,30.01,WNW,292,2.7,-999.0,74,-99.99,,,0.00,Acu-Link.com,2013-05-07 13:38:00,
2013-05-07 09:54:00,65.8,56.1,30.01,WNW,292,1.1,-999.0,71,-99.99,,,0.00,Acu-Link.com,2013-05-07 13:54:00,
2013-05-07 10:09:00,69.4,57.5,30.00,WNW,292,1.7,-999.0,66,-99.99,,,0.00,Acu-Link.com,2013-05-07 14:09:00,
2013-05-07 10:24:00,69.6,57.3,30.00,ESE,112,1.7,-999.0,65,-99.99,,,0.00,Acu-Link.com,2013-05-07 14:24:00,
2013-05-07 10:40:00,72.9,58.6,29.99,ESE,112,1.7,-999.0,61,-99.99,,,0.00,Acu-Link.com,2013-05-07 14:40:00,
2013-05-07 10:55:00,72.7,57.5,30.00,ESE,112,2.2,-999.0,59,-99.99,,,0.00,Acu-Link.com,2013-05-07 14:55:00,
2013-05-07 11:10:00,73.4,56.7,29.99,SSW,202,1.1,-999.0,56,-99.99,,,0.00,Acu-Link.com,2013-05-07 15:10:00,
2013-05-07 11:25:00,74.3,56.0,29.98,East,90,2.7,-999.0,53,-99.99,,,0.00,Acu-Link.com,2013-05-07 15:25:00,
2013-05-07 11:41:00,75.0,55.6,29.98,ESE,112,2.7,-999.0,51,-99.99,,,0.00,Acu-Link.com,2013-05-07 15:41:00,
2013-05-07 11:56:00,75.2,55.8,29.97,ESE,112,2.7,-999.0,51,-99.99,,,0.00,Acu-Link.com,2013-05-07 15:56:00,
2013-05-07 12:11:00,78.6,55.5,29.97,ESE,112,1.7,-999.0,45,-99.99,,,0.00,Acu-Link.com,2013-05-07 16:11:00,
2013-05-07 12:27:00,75.4,55.5,29.97,ESE,112,2.2,-999.0,50,-99.99,,,0.00,Acu-Link.com,2013-05-07 16:27:00,
2013-05-07 12:42:00,77.9,54.8,29.95,NNE,22,1.7,-999.0,45,-99.99,,,0.00,Acu-Link.com,2013-05-07 16:42:00,
2013-05-07 12:57:00,77.7,54.6,29.95,ESE,112,2.2,-999.0,45,-99.99,,,0.00,Acu-Link.com,2013-05-07 16:57:00,
2013-05-07 13:12:00,77.0,54.0,29.94,NNE,22,1.1,-999.0,45,-99.99,,,0.00,Acu-Link.com,2013-05-07 17:12:00,
2013-05-07 13:28:00,77.4,53.1,29.94,ESE,112,1.1,-999.0,43,-99.99,,,0.00,Acu-Link.com,2013-05-07 17:28:00,
2013-05-07 13:43:00,75.7,54.6,29.93,SE,135,2.7,-999.0,48,-99.99,,,0.00,Acu-Link.com,2013-05-07 17:43:00,
2013-05-07 13:58:00,78.4,54.7,29.93,WNW,292,1.1,-999.0,44,-99.99,,,0.00,Acu-Link.com,2013-05-07 17:58:00,
2013-05-07 14:14:00,78.1,55.6,29.92,NE,45,0.0,-999.0,46,-99.99,,,0.00,Acu-Link.com,2013-05-07 18:14:00,
2013-05-07 14:29:00,78.8,55.0,29.92,North,0,3.7,-999.0,44,-99.99,,,0.00,Acu-Link.com,2013-05-07 18:29:00,
2013-05-07 14:44:00,77.9,52.3,29.91,East,90,0.0,-999.0,41,-99.99,,,0.00,Acu-Link.com,2013-05-07 18:44:00,
2013-05-07 15:00:00,80.6,53.3,29.91,ESE,112,3.7,-999.0,39,-99.99,,,0.00,Acu-Link.com,2013-05-07 19:00:00,
2013-05-07 15:15:00,79.2,52.8,29.90,NNE,22,1.7,-999.0,40,-99.99,,,0.00,Acu-Link.com,2013-05-07 19:15:00,
2013-05-07 15:30:00,80.8,52.1,29.90,ESE,112,3.2,-999.0,37,-99.99,,,0.00,Acu-Link.com,2013-05-07 19:30:00,
2013-05-07 15:45:00,77.4,52.5,29.89,East,90,1.7,-999.0,42,-99.99,,,0.00,Acu-Link.com,2013-05-07 19:45:00,
2013-05-07 16:01:00,79.3,53.5,29.89,ESE,112,3.2,-999.0,41,-99.99,,,0.00,Acu-Link.com,2013-05-07 20:01:00,
2013-05-07 16:16:00,82.6,52.1,29.89,ESE,112,2.7,-999.0,35,-99.99,,,0.00,Acu-Link.com,2013-05-07 20:16:00,
2013-05-07 16:31:00,80.1,54.3,29.88,NNE,22,1.7,-999.0,41,-99.99,,,0.00,Acu-Link.com,2013-05-07 20:31:00,
2013-05-07 16:47:00,80.6,53.3,29.89,ESE,112,2.2,-999.0,39,-99.99,,,0.00,Acu-Link.com,2013-05-07 20:47:00,
2013-05-07 17:02:00,81.0,53.7,29.88,ESE,112,2.2,-999.0,39,-99.99,,,0.00,Acu-Link.com,2013-05-07 21:02:00,
2013-05-07 17:17:00,81.5,53.4,29.88,NNE,22,2.7,-999.0,38,-99.99,,,0.00,Acu-Link.com,2013-05-07 21:17:00,
2013-05-07 17:32:00,79.3,52.2,29.88,NNW,337,2.7,-999.0,39,-99.99,,,0.00,Acu-Link.com,2013-05-07 21:32:00,
2013-05-07 17:48:00,78.8,51.7,29.89,ESE,112,2.7,-999.0,39,-99.99,,,0.00,Acu-Link.com,2013-05-07 21:48:00,
2013-05-07 18:03:00,78.3,52.0,29.89,ESE,112,2.7,-999.0,40,-99.99,,,0.00,Acu-Link.com,2013-05-07 22:03:00,
2013-05-07 18:18:00,77.2,52.3,29.89,ESE,112,1.1,-999.0,42,-99.99,,,0.00,Acu-Link.com,2013-05-07 22:18:00,
2013-05-07 18:34:00,76.5,52.3,29.89,NNW,337,1.1,-999.0,43,-99.99,,,0.00,Acu-Link.com,2013-05-07 22:34:00,
2013-05-07 18:49:00,74.7,54.3,29.90,ESE,112,2.7,-999.0,49,-99.99,,,0.00,Acu-Link.com,2013-05-07 22:49:00,
2013-05-07 19:04:00,72.7,53.0,29.91,ENE,67,2.7,-999.0,50,-99.99,,,0.00,Acu-Link.com,2013-05-07 23:04:00,
2013-05-07 19:19:00,72.0,52.9,29.91,East,90,1.1,-999.0,51,-99.99,,,0.00,Acu-Link.com,2013-05-07 23:19:00,
2013-05-07 19:35:00,70.9,52.4,29.92,ESE,112,1.1,-999.0,52,-99.99,,,0.00,Acu-Link.com,2013-05-07 23:35:00,
2013-05-07 19:50:00,70.3,52.9,29.93,ESE,112,0.0,-999.0,54,-99.99,,,0.00,Acu-Link.com,2013-05-07 23:50:00,
2013-05-07 20:05:00,69.4,53.0,29.93,East,90,0.0,-999.0,56,-99.99,,,0.00,Acu-Link.com,2013-05-08 00:05:00,
2013-05-07 20:20:00,68.7,53.3,29.93,North,0,0.0,-999.0,58,-99.99,,,0.00,Acu-Link.com,2013-05-08 00:20:00,
2013-05-07 20:35:00,68.0,52.7,29.93,North,0,0.0,-999.0,58,-99.99,,,0.00,Acu-Link.com,2013-05-08 00:35:00,
2013-05-07 20:50:00,67.5,52.2,29.94,North,0,0.0,-999.0,58,-99.99,,,0.00,Acu-Link.com,2013-05-08 00:50:00,
2013-05-07 21:05:00,67.1,52.3,29.93,North,0,0.0,-999.0,59,-99.99,,,0.00,Acu-Link.com,2013-05-08 01:05:00,
2013-05-07 21:20:00,66.6,52.3,29.94,North,0,0.0,-999.0,60,-99.99,,,0.00,Acu-Link.com,2013-05-08 01:20:00,
2013-05-07 21:36:00,66.2,52.8,29.94,NNE,22,0.0,-999.0,62,-99.99,,,0.00,Acu-Link.com,2013-05-08 01:36:00,
2013-05-07 21:51:00,65.8,53.3,29.95,ENE,67,0.0,-999.0,64,-99.99,,,0.00,Acu-Link.com,2013-05-08 01:51:00,
2013-05-07 22:06:00,65.7,53.6,29.95,ENE,67,0.0,-999.0,65,-99.99,,,0.00,Acu-Link.com,2013-05-08 02:06:00,
2013-05-07 22:21:00,65.5,53.8,29.95,ENE,67,0.0,-999.0,66,-99.99,,,0.00,Acu-Link.com,2013-05-08 02:21:00,
2013-05-07 22:37:00,65.1,53.5,29.95,ENE,67,0.0,-999.0,66,-99.99,,,0.00,Acu-Link.com,2013-05-08 02:37:00,
2013-05-07 22:52:00,64.9,53.7,29.94,ENE,67,0.0,-999.0,67,-99.99,,,0.00,Acu-Link.com,2013-05-08 02:52:00,
2013-05-07 23:07:00,64.8,54.0,29.95,ENE,67,0.0,-999.0,68,-99.99,,,0.00,Acu-Link.com,2013-05-08 03:07:00,
2013-05-07 23:22:00,64.6,53.8,29.95,ENE,67,0.0,-999.0,68,-99.99,,,0.00,Acu-Link.com,2013-05-08 03:22:00,
2013-05-07 23:37:00,64.4,54.0,29.95,ENE,67,0.0,-999.0,69,-99.99,,,0.00,Acu-Link.com,2013-05-08 03:37:00,
2013-05-07 23:53:00,64.0,53.6,29.95,ENE,67,0.0,-999.0,69,-99.99,,,0.00,Acu-Link.com,2013-05-08 03:53:00,